This is the latest recevied weather packets stored in our database for station/object N2VUZ-1. If no packets are shown the sender has not sent any weather packets the latest 10 day(s).
| Time | Temp. | Humidity | Pressure | Rain* | Wind** | Luminosity | Snow |
|---|---|---|---|---|---|---|---|
| 1788209961 | 28.33° C | 77% | 1017.6 hPa | 0 mm | - | - | - |
| 1788209661 | 28.89° C | 77% | 1017.5 hPa | 0 mm | - | - | - |
| 1788209361 | 28.89° C | 77% | 1017.3 hPa | 0 mm | - | - | - |
| 1788209061 | 28.89° C | 76% | 1017.4 hPa | 0 mm | - | - | - |
| 1788208761 | 28.89° C | 76% | 1017.4 hPa | 0 mm | - | - | - |
| 1788208461 | 28.89° C | 77% | 1017.3 hPa | 0 mm | - | - | - |
| 1788208161 | 29.44° C | 75% | 1017 hPa | 0 mm | - | - | - |
| 1788207861 | 29.44° C | 75% | 1017 hPa | 0 mm | - | - | - |
| 1788207561 | 30° C | 74% | 1017 hPa | 0 mm | - | - | - |
| 1788207261 | 29.44° C | 76% | 1017 hPa | 0 mm | - | - | - |
| 1788206961 | 28.89° C | 75% | 1017 hPa | 0 mm | - | - | - |
| 1788206664 | 29.44° C | 75% | 1017.3 hPa | 0 mm | - | - | - |
| 1788206361 | 29.44° C | 75% | 1017.1 hPa | 0 mm | - | - | - |
| 1788206061 | 29.44° C | 74% | 1017.1 hPa | 0 mm | - | - | - |
| 1788205761 | 30° C | 73% | 1017.1 hPa | 0 mm | - | - | - |
| 1788205461 | 30° C | 73% | 1017.1 hPa | 0 mm | - | - | - |
| 1788205161 | 30° C | 72% | 1017.2 hPa | 0 mm | - | - | - |
| 1788204868 | 30.56° C | 70% | 1017.2 hPa | 0 mm | - | - | - |
| 1788204561 | 30.56° C | 71% | 1017.3 hPa | 0 mm | - | - | - |
| 1788204261 | 30.56° C | 69% | 1017.5 hPa | 0 mm | - | - | - |
| 1788203973 | 30.56° C | 70% | 1017.4 hPa | 0 mm | - | - | - |
| 1788203661 | 30° C | 71% | 1017.7 hPa | 0 mm | - | - | - |
| 1788203361 | 30° C | 73% | 1017.7 hPa | 0 mm | - | - | - |
| 1788203061 | 29.44° C | 72% | 1017.5 hPa | 0 mm | - | - | - |
| 1788202761 | 30° C | 73% | 1017.7 hPa | 0 mm | - | - | - |
* Rain latest hour (hover to see other rain measurements)
** Current wind speed in m/s (hover to see current wind gust speed)